| time (UTC) | temp F | wind direction | speed MPH | gust MPH | rain 1hr in | rain 24hr in | rain mn in | humidity % | barometer mb |
| 20260506171024 | 50 | 126 | 8.0 | 16.0 | 0.00 | 0.05 | 0.01 | 56 | 1017.8 |
| 20260506170522 | 50 | 148 | 7.0 | 16.0 | 0.00 | 0.05 | 0.01 | 58 | 1017.7 |
| 20260506170034 | 50 | 111 | 7.0 | 13.0 | 0.00 | 0.05 | 0.01 | 60 | 1017.6 |
| 20260506165526 | 50 | 61 | 3.0 | 13.0 | 0.00 | 0.05 | 0.01 | 65 | 1017.5 |
| 20260506165027 | 49 | 115 | 6.0 | 14.0 | 0.00 | 0.05 | 0.01 | 61 | 1017.4 |
| 20260506164539 | 49 | 107 | 6.0 | 14.0 | 0.00 | 0.05 | 0.01 | 62 | 1017.3 |
| 20260506164024 | 49 | 125 | 5.0 | 12.0 | 0.00 | 0.05 | 0.01 | 64 | 1017.4 |
| 20260506163525 | 48 | 157 | 5.0 | 12.0 | 0.00 | 0.05 | 0.01 | 66 | 1017.5 |
| 20260506163052 | 47 | 138 | 6.0 | 12.0 | 0.00 | 0.05 | 0.01 | 65 | 1017.5 |
| 20260506162524 | 47 | 98 | 5.0 | 11.0 | 0.00 | 0.05 | 0.01 | 69 | 1017.5 |
| 20260506162026 | 47 | 100 | 6.0 | 11.0 | 0.00 | 0.05 | 0.01 | 67 | 1017.5 |
| 20260506161542 | 47 | 146 | 3.0 | 9.0 | 0.00 | 0.05 | 0.01 | 69 | 1017.5 |
| 20260506161023 | 47 | 96 | 3.0 | 10.0 | 0.00 | 0.05 | 0.01 | 72 | 1017.5 |
| 20260506160527 | 46 | 185 | 2.0 | 10.0 | 0.00 | 0.05 | 0.01 | 74 | 1017.7 |
| 20260506160038 | 45 | 159 | 4.0 | 10.0 | 0.00 | 0.05 | 0.01 | 71 | 1017.7 |
| 20260506155524 | 45 | 171 | 4.0 | 11.0 | 0.00 | 0.05 | 0.01 | 73 | 1017.7 |
| 20260506155024 | 45 | 116 | 7.0 | 12.0 | 0.00 | 0.05 | 0.01 | 73 | 1017.8 |
| 20260506154540 | 44 | 159 | 5.0 | 14.0 | 0.00 | 0.05 | 0.01 | 75 | 1017.7 |
| 20260506154026 | 43 | 152 | 3.0 | 15.0 | 0.00 | 0.05 | 0.01 | 76 | 1017.8 |
| 20260506153523 | 44 | 104 | 6.0 | 15.0 | 0.00 | 0.05 | 0.01 | 74 | 1017.8 |
| 20260506153039 | 44 | 146 | 4.0 | 13.0 | 0.00 | 0.05 | 0.01 | 75 | 1017.8 |
| 20260506152528 | 43 | 105 | 6.0 | 11.0 | 0.00 | 0.05 | 0.01 | 76 | 1017.8 |
| 20260506152021 | 43 | 93 | 4.0 | 11.0 | 0.00 | 0.05 | 0.01 | 76 | 1017.8 |
| 20260506151535 | 43 | 158 | 6.0 | 11.0 | 0.00 | 0.05 | 0.01 | 76 | 1017.8 |
| 20260506151024 | 43 | 125 | 6.0 | 15.0 | 0.00 | 0.05 | 0.01 | 75 | 1017.7 |
| 20260506150521 | 43 | 72 | 6.0 | 15.0 | 0.00 | 0.05 | 0.01 | 77 | 1017.8 |
| 20260506150041 | 42 | 130 | 4.0 | 10.0 | 0.00 | 0.05 | 0.01 | 79 | 1017.9 |
| 20260506145523 | 42 | 149 | 6.0 | 12.0 | 0.00 | 0.05 | 0.01 | 79 | 1018.0 |
| 20260506145022 | 42 | 90 | 5.0 | 12.0 | 0.00 | 0.05 | 0.01 | 79 | 1017.9 |
| 20260506144540 | 42 | 110 | 5.0 | 12.0 | 0.00 | 0.05 | 0.01 | 82 | 1017.7 |
| 20260506144023 | 41 | 117 | 5.0 | 12.0 | 0.00 | 0.05 | 0.01 | 83 | 1017.7 |
| 20260506143524 | 40 | 138 | 3.0 | 8.0 | 0.00 | 0.05 | 0.01 | 83 | 1017.6 |
| 20260506143035 | 40 | 121 | 3.0 | 8.0 | 0.00 | 0.05 | 0.01 | 83 | 1017.7 |
| 20260506142521 | 39 | 134 | 2.0 | 7.0 | 0.00 | 0.05 | 0.01 | 84 | 1017.6 |
| 20260506142022 | 39 | 144 | 3.0 | 7.0 | 0.00 | 0.05 | 0.01 | 84 | 1017.7 |
| 20260506141535 | 39 | 130 | 2.0 | 10.0 | 0.00 | 0.05 | 0.01 | 85 | 1017.5 |
| 20260506141024 | 39 | 171 | 4.0 | 10.0 | 0.00 | 0.05 | 0.01 | 86 | 1017.8 |
| 20260506140526 | 38 | 113 | 3.0 | 10.0 | 0.00 | 0.05 | 0.01 | 86 | 1017.7 |
| 20260506140049 | 38 | 154 | 3.0 | 8.0 | 0.00 | 0.05 | 0.01 | 88 | 1017.6 |
| 20260506135523 | 38 | 112 | 2.0 | 6.0 | 0.00 | 0.05 | 0.01 | 88 | 1017.6 |
| 20260506135025 | 37 | 119 | 2.0 | 6.0 | 0.00 | 0.05 | 0.01 | 88 | 1017.6 |
| 20260506134539 | 37 | 154 | 0.0 | 4.0 | 0.00 | 0.05 | 0.01 | 88 | 1017.7 |
| 20260506134021 | 37 | 0 | 0.0 | 6.0 | 0.00 | 0.05 | 0.01 | 89 | 1017.5 |
| 20260506133525 | 37 | 166 | 2.0 | 7.0 | 0.00 | 0.05 | 0.01 | 88 | 1017.5 |
| 20260506133037 | 37 | 93 | 1.0 | 7.0 | 0.00 | 0.05 | 0.01 | 89 | 1017.3 |
| 20260506132521 | 37 | 93 | 2.0 | 7.0 | 0.00 | 0.05 | 0.01 | 89 | 1017.3 |
| 20260506132023 | 36 | 95 | 0.0 | 7.0 | 0.00 | 0.05 | 0.01 | 89 | 1017.3 |
| 20260506131536 | 36 | 96 | 2.0 | 7.0 | 0.00 | 0.05 | 0.01 | 90 | 1017.2 |
| 20260506131026 | 36 | 147 | 1.0 | 5.0 | 0.00 | 0.05 | 0.01 | 90 | 1017.1 |
| 20260506130527 | 36 | 163 | 1.0 | 4.0 | 0.00 | 0.05 | 0.01 | 89 | 1017.2 |
| 20260506130042 | 36 | 165 | 0.0 | 2.0 | 0.00 | 0.05 | 0.01 | 89 | 1017.2 |
| 20260506125523 | 36 | 0 | 0.0 | 2.0 | 0.00 | 0.05 | 0.01 | 87 | 1017.1 |
| 20260506125023 | 36 | 0 | 0.0 | 2.0 | 0.00 | 0.05 | 0.01 | 87 | 1017.1 |
| 20260506124535 | 36 | 162 | 0.0 | 5.0 | 0.00 | 0.05 | 0.01 | 86 | 1017.0 |
| 20260506124024 | 36 | 0 | 0.0 | 6.0 | 0.00 | 0.05 | 0.01 | 86 | 1016.8 |
| 20260506123524 | 36 | 162 | 1.0 | 6.0 | 0.00 | 0.05 | 0.01 | 86 | 1016.8 |
| 20260506123039 | 36 | 163 | 2.0 | 7.0 | 0.00 | 0.05 | 0.01 | 87 | 1016.7 |
| 20260506122524 | 36 | 182 | 3.0 | 7.0 | 0.00 | 0.05 | 0.01 | 87 | 1016.7 |
| 20260506122023 | 36 | 294 | 0.0 | 3.0 | 0.00 | 0.05 | 0.01 | 88 | 1016.6 |
| 20260506121538 | 36 | 294 | 1.0 | 8.0 | 0.00 | 0.05 | 0.01 | 88 | 1016.7 |
| 20260506121022 | 36 | 293 | 2.0 | 8.0 | 0.00 | 0.05 | 0.01 | 89 | 1016.7 |
| 20260506120523 | 35 | 311 | 4.0 | 8.0 | 0.00 | 0.05 | 0.01 | 90 | 1016.7 |
| 20260506120036 | 35 | 304 | 3.0 | 8.0 | 0.00 | 0.05 | 0.01 | 92 | 1016.6 |
| 20260506115524 | 34 | 294 | 3.0 | 8.0 | 0.00 | 0.05 | 0.01 | 93 | 1016.4 |
| 20260506115023 | 34 | 335 | 2.0 | 8.0 | 0.00 | 0.05 | 0.01 | 92 | 1016.4 |
| 20260506114549 | 34 | 360 | 1.0 | 4.0 | 0.00 | 0.05 | 0.01 | 92 | 1016.5 |
| 20260506114024 | 34 | 360 | 2.0 | 4.0 | 0.00 | 0.05 | 0.01 | 92 | 1016.4 |
| 20260506113524 | 34 | 19 | 1.0 | 3.0 | 0.00 | 0.05 | 0.01 | 92 | 1016.2 |
| 20260506113041 | 34 | 0 | 0.0 | 3.0 | 0.00 | 0.05 | 0.01 | 93 | 1016.0 |
| 20260506112522 | 33 | 0 | 0.0 | 3.0 | 0.00 | 0.05 | 0.01 | 93 | 1016.0 |
| 20260506112023 | 33 | 22 | 1.0 | 3.0 | 0.01 | 0.05 | 0.01 | 93 | 1016.0 |
| 20260506111542 | 33 | 0 | 0.0 | 3.0 | 0.01 | 0.05 | 0.01 | 93 | 1016.1 |
| 20260506111023 | 33 | 0 | 0.0 | 2.0 | 0.01 | 0.05 | 0.01 | 92 | 1016.2 |
| 20260506110523 | 33 | 0 | 0.0 | 2.0 | 0.01 | 0.05 | 0.01 | 92 | 1016.2 |
| 20260506110041 | 33 | 275 | 0.0 | 1.0 | 0.01 | 0.05 | 0.01 | 92 | 1016.2 |
| 20260506105522 | 33 | 0 | 0.0 | 1.0 | 0.01 | 0.05 | 0.01 | 92 | 1016.2 |
| 20260506105023 | 33 | 0 | 0.0 | 2.0 | 0.01 | 0.05 | 0.01 | 91 | 1016.2 |
| 20260506104543 | 33 | 0 | 0.0 | 2.0 | 0.01 | 0.05 | 0.01 | 91 | 1016.1 |
| 20260506104023 | 34 | 0 | 0.0 | 2.0 | 0.01 | 0.05 | 0.01 | 91 | 1016.2 |
| 20260506103523 | 34 | 0 | 0.0 | 2.0 | 0.01 | 0.05 | 0.01 | 91 | 1016.2 |
| 20260506103035 | 34 | 0 | 0.0 | 2.0 | 0.01 | 0.05 | 0.01 | 91 | 1016.1 |
| 20260506102527 | 34 | 0 | 0.0 | 2.0 | 0.01 | 0.05 | 0.01 | 91 | 1016.1 |
| 20260506102024 | 34 | 0 | 0.0 | 3.0 | 0.00 | 0.04 | 0.00 | 91 | 1016.1 |
| 20260506101537 | 35 | 0 | 0.0 | 3.0 | 0.00 | 0.04 | 0.00 | 91 | 1016.1 |
| 20260506101025 | 35 | 275 | 1.0 | 3.0 | 0.00 | 0.04 | 0.00 | 91 | 1016.1 |
| 20260506100527 | 35 | 275 | 1.0 | 3.0 | 0.00 | 0.04 | 0.00 | 91 | 1016.1 |
| 20260506100041 | 35 | 0 | 1.0 | 2.0 | 0.00 | 0.04 | 0.00 | 91 | 1016.1 |
| 20260506095526 | 36 | 0 | 0.0 | 2.0 | 0.00 | 0.04 | 0.00 | 92 | 1016.1 |
| 20260506095026 | 36 | 0 | 0.0 | 3.0 | 0.00 | 0.04 | 0.00 | 92 | 1016.1 |
| 20260506094544 | 36 | 0 | 0.0 | 3.0 | 0.00 | 0.04 | 0.00 | 92 | 1016.0 |
| 20260506094023 | 35 | 0 | 0.0 | 2.0 | 0.00 | 0.04 | 0.00 | 92 | 1016.1 |
| 20260506093525 | 35 | 0 | 0.0 | 2.0 | 0.00 | 0.04 | 0.00 | 92 | 1016.0 |
| 20260506093101 | 35 | 0 | 0.0 | 2.0 | 0.00 | 0.04 | 0.00 | 92 | 1016.1 |
| 20260506092525 | 35 | 0 | 1.0 | 2.0 | 0.00 | 0.04 | 0.00 | 92 | 1016.0 |
| 20260506092025 | 35 | 0 | 0.0 | 2.0 | 0.00 | 0.04 | 0.00 | 92 | 1016.0 |
| 20260506091536 | 35 | 281 | 0.0 | 2.0 | 0.00 | 0.04 | 0.00 | 92 | 1016.0 |
| 20260506091024 | 35 | 281 | 0.0 | 2.0 | 0.00 | 0.04 | 0.00 | 92 | 1015.9 |
| 20260506090526 | 35 | 0 | 0.0 | 2.0 | 0.00 | 0.04 | 0.00 | 92 | 1016.0 |
| 20260506090042 | 35 | 281 | 1.0 | 2.0 | 0.00 | 0.04 | 0.00 | 91 | 1015.9 |
| 20260506085525 | 35 | 281 | 0.0 | 2.0 | 0.00 | 0.04 | 0.00 | 91 | 1015.9 |
| 20260506085024 | 36 | 0 | 0.0 | 2.0 | 0.00 | 0.04 | 0.00 | 91 | 1015.9 |
| 20260506084536 | 36 | 0 | 0.0 | 2.0 | 0.00 | 0.04 | 0.00 | 91 | 1016.0 |
| 20260506084026 | 36 | 0 | 0.0 | 2.0 | 0.00 | 0.04 | 0.00 | 91 | 1015.9 |
| 20260506083526 | 36 | 281 | 0.0 | 3.0 | 0.00 | 0.04 | 0.00 | 91 | 1015.9 |
| 20260506083041 | 36 | 0 | 0.0 | 3.0 | 0.00 | 0.04 | 0.00 | 91 | 1015.9 |
| 20260506082529 | 36 | 281 | 0.0 | 3.0 | 0.00 | 0.04 | 0.00 | 91 | 1015.9 |
| 20260506082025 | 36 | 0 | 0.0 | 3.0 | 0.00 | 0.04 | 0.00 | 91 | 1015.9 |
| 20260506081540 | 37 | 0 | 1.0 | 3.0 | 0.00 | 0.04 | 0.00 | 92 | 1016.0 |
| 20260506081026 | 37 | 281 | 0.0 | 2.0 | 0.00 | 0.04 | 0.00 | 91 | 1016.1 |
| 20260506080524 | 37 | 281 | 0.0 | 3.0 | 0.00 | 0.04 | 0.00 | 92 | 1016.1 |
| 20260506073526 | 37 | 0 | 0.0 | 0.0 | 0.00 | 0.04 | 0.00 | 91 | 1016.6 |
| 20260506073042 | 37 | 0 | 0.0 | 1.0 | 0.00 | 0.04 | 0.00 | 91 | 1016.6 |
| 20260506072526 | 37 | 0 | 0.0 | 2.0 | 0.00 | 0.04 | 0.00 | 91 | 1016.5 |
| 20260506072027 | 38 | 279 | 0.0 | 2.0 | 0.00 | 0.04 | 0.00 | 90 | 1016.7 |
| 20260506071542 | 38 | 279 | 0.0 | 2.0 | 0.00 | 0.04 | 0.00 | 90 | 1016.6 |
| 20260506071021 | 38 | 0 | 0.0 | 2.0 | 0.00 | 0.04 | 0.00 | 90 | 1016.4 |
| 20260506070528 | 38 | 0 | 0.0 | 3.0 | 0.00 | 0.04 | 0.00 | 90 | 1016.4 |
| 20260506062026 | 40 | 0 | 0.0 | 2.0 | 0.00 | 0.04 | 0.00 | 89 | 1016.5 |
| 20260506061549 | 40 | 277 | 0.0 | 3.0 | 0.00 | 0.04 | 0.00 | 89 | 1016.4 |
| 20260506061027 | 40 | 0 | 0.0 | 4.0 | 0.00 | 0.04 | 0.00 | 88 | 1016.3 |
| 20260506060525 | 40 | 277 | 1.0 | 4.0 | 0.00 | 0.04 | 0.00 | 88 | 1016.4 |
| 20260506051025 | 41 | 0 | 1.0 | 6.0 | 0.04 | 0.04 | 0.04 | 88 | 1016.8 |
| 20260506050526 | 41 | 207 | 3.0 | 13.0 | 0.04 | 0.04 | 0.04 | 87 | 1017.0 |
| 20260506045026 | 41 | 184 | 5.0 | 12.0 | 0.04 | 0.04 | 0.04 | 88 | 1017.2 |
| 20260506044536 | 41 | 0 | 0.0 | 3.0 | 0.03 | 0.03 | 0.03 | 89 | 1017.0 |
| 20260506044022 | 41 | 0 | 0.0 | 5.0 | 0.03 | 0.03 | 0.03 | 89 | 1016.7 |
| 20260506043524 | 41 | 295 | 0.0 | 7.0 | 0.01 | 0.01 | 0.01 | 89 | 1016.4 |
| 20260506043043 | 41 | 296 | 3.0 | 7.0 | 0.01 | 0.01 | 0.01 | 88 | 1016.2 |
| 20260506042523 | 41 | 284 | 3.0 | 8.0 | 0.01 | 0.01 | 0.01 | 89 | 1016.1 |
| 20260506042025 | 41 | 288 | 3.0 | 8.0 | 0.00 | 0.00 | 0.00 | 89 | 1016.0 |
| 20260506041544 | 41 | 300 | 3.0 | 8.0 | 0.00 | 0.00 | 0.00 | 89 | 1015.8 |
| 20260506041025 | 41 | 294 | 3.0 | 10.0 | 0.00 | 0.00 | 0.00 | 89 | 1015.7 |
| 20260506040526 | 41 | 295 | 2.0 | 10.0 | 0.00 | 0.00 | 0.00 | 89 | 1015.7 |
| 20260506011540 | 54 | 125 | 4.0 | 10.0 | 0.00 | 0.00 | 0.00 | 48 | 1012.6 |
| 20260506011024 | 54 | 80 | 2.0 | 13.0 | 0.00 | 0.00 | 0.00 | 48 | 1012.3 |
| 20260506010524 | 54 | 90 | 5.0 | 13.0 | 0.00 | 0.00 | 0.00 | 48 | 1012.6 |
| 20260506010040 | 54 | 105 | 6.0 | 13.0 | 0.00 | 0.00 | 0.00 | 47 | 1012.7 |
| 20260506005524 | 55 | 117 | 7.0 | 13.0 | 0.00 | 0.00 | 0.00 | 47 | 1012.7 |
| 20260506005022 | 56 | 90 | 6.0 | 18.0 | 0.00 | 0.00 | 0.00 | 44 | 1012.7 |
| 20260506004541 | 57 | 101 | 11.0 | 18.0 | 0.00 | 0.00 | 0.00 | 42 | 1012.7 |
| 20260506004029 | 58 | 132 | 6.0 | 14.0 | 0.00 | 0.00 | 0.00 | 43 | 1012.6 |
| 20260506003530 | 58 | 109 | 9.0 | 15.0 | 0.00 | 0.00 | 0.00 | 42 | 1012.7 |
| 20260506003035 | 59 | 121 | 6.0 | 17.0 | 0.00 | 0.00 | 0.00 | 42 | 1012.7 |
| 20260506002524 | 59 | 124 | 7.0 | 17.0 | 0.00 | 0.00 | 0.00 | 42 | 1012.5 |
| 20260506002023 | 59 | 108 | 6.0 | 15.0 | 0.00 | 0.00 | 0.00 | 42 | 1012.6 |
| 20260506001548 | 58 | 105 | 5.0 | 14.0 | 0.00 | 0.00 | 0.00 | 42 | 1012.5 |
| 20260506001025 | 58 | 98 | 9.0 | 16.0 | 0.00 | 0.00 | 0.00 | 42 | 1012.6 |
| 20260506000527 | 58 | 107 | 9.0 | 21.0 | 0.00 | 0.00 | 0.00 | 42 | 1012.7 |
| 20260506000054 | 59 | 114 | 10.0 | 22.0 | 0.00 | 0.00 | 0.00 | 43 | 1012.7 |
| 20260505235524 | 59 | 89 | 9.0 | 22.0 | 0.00 | 0.00 | 0.00 | 43 | 1012.7 |
| 20260505235027 | 59 | 78 | 11.0 | 20.0 | 0.00 | 0.00 | 0.00 | 43 | 1012.5 |
| 20260505234542 | 59 | 112 | 10.0 | 20.0 | 0.00 | 0.00 | 0.00 | 43 | 1012.5 |
| 20260505234026 | 59 | 106 | 8.0 | 19.0 | 0.00 | 0.00 | 0.00 | 44 | 1012.4 |
| 20260505233525 | 58 | 103 | 11.0 | 25.0 | 0.00 | 0.00 | 0.00 | 45 | 1012.4 |
| 20260505233044 | 57 | 99 | 8.0 | 25.0 | 0.00 | 0.00 | 0.00 | 45 | 1012.5 |
| 20260505232527 | 57 | 86 | 10.0 | 22.0 | 0.00 | 0.00 | 0.00 | 46 | 1012.7 |
| 20260505232024 | 57 | 137 | 13.0 | 21.0 | 0.00 | 0.00 | 0.00 | 47 | 1012.7 |
| 20260505231538 | 56 | 74 | 8.0 | 20.0 | 0.00 | 0.00 | 0.00 | 47 | 1012.7 |
| 20260505231028 | 56 | 147 | 11.0 | 22.0 | 0.00 | 0.00 | 0.00 | 46 | 1012.6 |
| 20260505230524 | 57 | 119 | 8.0 | 27.0 | 0.00 | 0.00 | 0.00 | 45 | 1012.5 |
| 20260505230044 | 57 | 127 | 10.0 | 27.0 | 0.00 | 0.00 | 0.00 | 46 | 1012.6 |
| 20260505225525 | 57 | 136 | 10.0 | 20.0 | 0.00 | 0.00 | 0.00 | 46 | 1012.5 |
| 20260505225025 | 57 | 88 | 9.0 | 19.0 | 0.00 | 0.00 | 0.00 | 46 | 1012.5 |
| 20260505224546 | 57 | 92 | 10.0 | 19.0 | 0.00 | 0.00 | 0.00 | 45 | 1012.5 |
| 20260505224024 | 58 | 77 | 8.0 | 19.0 | 0.00 | 0.00 | 0.00 | 46 | 1012.5 |
| 20260505223525 | 58 | 123 | 8.0 | 20.0 | 0.00 | 0.00 | 0.00 | 45 | 1012.4 |
| 20260505223042 | 57 | 113 | 9.0 | 20.0 | 0.00 | 0.00 | 0.00 | 45 | 1012.5 |
| 20260505222526 | 58 | 87 | 12.0 | 20.0 | 0.00 | 0.00 | 0.00 | 43 | 1012.5 |
| 20260505222023 | 59 | 119 | 8.0 | 20.0 | 0.00 | 0.00 | 0.00 | 42 | 1012.5 |
| 20260505221549 | 59 | 119 | 9.0 | 20.0 | 0.00 | 0.00 | 0.00 | 42 | 1012.5 |
| 20260505221024 | 59 | 80 | 7.0 | 22.0 | 0.00 | 0.00 | 0.00 | 43 | 1012.5 |
| 20260505220524 | 60 | 110 | 9.0 | 22.0 | 0.00 | 0.00 | 0.00 | 41 | 1012.5 |
| 20260505220038 | 60 | 109 | 8.0 | 17.0 | 0.00 | 0.00 | 0.00 | 41 | 1012.6 |
| 20260505215526 | 60 | 163 | 7.0 | 21.0 | 0.00 | 0.00 | 0.00 | 41 | 1012.5 |
| 20260505215025 | 61 | 105 | 10.0 | 21.0 | 0.00 | 0.00 | 0.00 | 41 | 1012.5 |
| 20260505214539 | 60 | 69 | 9.0 | 21.0 | 0.00 | 0.00 | 0.00 | 42 | 1012.7 |
| 20260505214024 | 60 | 87 | 8.0 | 17.0 | 0.00 | 0.00 | 0.00 | 43 | 1012.7 |
| 20260505213524 | 60 | 106 | 8.0 | 19.0 | 0.00 | 0.00 | 0.00 | 44 | 1013.0 |
| 20260505213035 | 59 | 98 | 9.0 | 19.0 | 0.00 | 0.00 | 0.00 | 43 | 1013.0 |
| 20260505212525 | 61 | 111 | 9.0 | 19.0 | 0.00 | 0.00 | 0.00 | 41 | 1013.2 |
| 20260505212025 | 60 | 41 | 7.0 | 20.0 | 0.00 | 0.00 | 0.00 | 44 | 1013.2 |
| 20260505211609 | 60 | 150 | 8.0 | 20.0 | 0.00 | 0.00 | 0.00 | 43 | 1013.2 |
| 20260505211025 | 59 | 137 | 9.0 | 20.0 | 0.00 | 0.00 | 0.00 | 44 | 1013.4 |
| 20260505210524 | 60 | 123 | 11.0 | 17.0 | 0.00 | 0.00 | 0.00 | 43 | 1013.4 |
| 20260505210041 | 60 | 94 | 6.0 | 17.0 | 0.00 | 0.00 | 0.00 | 44 | 1013.3 |
| 20260505205526 | 60 | 99 | 9.0 | 17.0 | 0.00 | 0.00 | 0.00 | 44 | 1013.5 |
| 20260505205027 | 59 | 71 | 7.0 | 16.0 | 0.00 | 0.00 | 0.00 | 45 | 1013.6 |
| 20260505204553 | 58 | 135 | 8.0 | 24.0 | 0.00 | 0.00 | 0.00 | 46 | 1013.8 |
| 20260505204027 | 58 | 186 | 10.0 | 24.0 | 0.00 | 0.00 | 0.00 | 46 | 1014.0 |
| 20260505203525 | 57 | 136 | 9.0 | 17.0 | 0.00 | 0.00 | 0.00 | 46 | 1014.1 |
| 20260505203035 | 57 | 144 | 8.0 | 20.0 | 0.00 | 0.00 | 0.00 | 46 | 1014.1 |
| 20260505202524 | 58 | 120 | 9.0 | 21.0 | 0.00 | 0.00 | 0.00 | 46 | 1014.2 |
| 20260505202030 | 57 | 177 | 9.0 | 21.0 | 0.00 | 0.00 | 0.00 | 47 | 1014.3 |
| 20260505201542 | 58 | 144 | 9.0 | 18.0 | 0.00 | 0.00 | 0.00 | 48 | 1014.3 |
| 20260505201024 | 58 | 150 | 8.0 | 20.0 | 0.00 | 0.00 | 0.00 | 47 | 1014.2 |
| 20260505200524 | 57 | 110 | 8.0 | 20.0 | 0.00 | 0.00 | 0.00 | 48 | 1014.3 |
| 20260505200039 | 56 | 158 | 9.0 | 20.0 | 0.00 | 0.00 | 0.00 | 50 | 1014.1 |
| 20260505195524 | 56 | 163 | 11.0 | 20.0 | 0.00 | 0.00 | 0.00 | 51 | 1014.1 |
| 20260505195024 | 56 | 178 | 9.0 | 18.0 | 0.00 | 0.00 | 0.00 | 50 | 1014.0 |
| 20260505194538 | 56 | 104 | 9.0 | 18.0 | 0.00 | 0.00 | 0.00 | 50 | 1014.1 |
| 20260505194032 | 55 | 140 | 8.0 | 18.0 | 0.00 | 0.00 | 0.00 | 50 | 1014.1 |
| 20260505193523 | 55 | 139 | 8.0 | 20.0 | 0.00 | 0.00 | 0.00 | 49 | 1014.2 |
| 20260505193037 | 56 | 190 | 8.0 | 20.0 | 0.00 | 0.00 | 0.00 | 49 | 1014.2 |
| 20260505192522 | 56 | 190 | 8.0 | 19.0 | 0.00 | 0.00 | 0.00 | 48 | 1014.1 |
| 20260505192024 | 56 | 161 | 8.0 | 17.0 | 0.00 | 0.00 | 0.00 | 47 | 1014.2 |
| 20260505191536 | 57 | 155 | 5.0 | 17.0 | 0.00 | 0.00 | 0.00 | 46 | 1014.1 |
| 20260505191021 | 57 | 149 | 7.0 | 16.0 | 0.00 | 0.00 | 0.00 | 45 | 1014.2 |
| 20260505190522 | 57 | 117 | 7.0 | 15.0 | 0.00 | 0.00 | 0.00 | 45 | 1014.1 |
| 20260505190035 | 57 | 138 | 7.0 | 17.0 | 0.00 | 0.00 | 0.00 | 44 | 1014.1 |
| 20260505185524 | 57 | 113 | 8.0 | 17.0 | 0.00 | 0.00 | 0.00 | 45 | 1014.1 |
| 20260505185022 | 56 | 105 | 8.0 | 14.0 | 0.00 | 0.00 | 0.00 | 45 | 1014.1 |
| 20260505184542 | 56 | 107 | 6.0 | 14.0 | 0.00 | 0.00 | 0.00 | 43 | 1014.1 |
| 20260505184024 | 57 | 141 | 8.0 | 15.0 | 0.00 | 0.00 | 0.00 | 43 | 1014.2 |
| 20260505183528 | 58 | 121 | 8.0 | 15.0 | 0.00 | 0.00 | 0.00 | 42 | 1014.2 |
| 20260505183038 | 58 | 75 | 6.0 | 14.0 | 0.00 | 0.00 | 0.00 | 40 | 1014.3 |
| 20260505182524 | 58 | 138 | 5.0 | 14.0 | 0.00 | 0.00 | 0.00 | 40 | 1014.2 |
| 20260505182028 | 59 | 99 | 6.0 | 14.0 | 0.00 | 0.00 | 0.00 | 39 | 1014.1 |
| 20260505181555 | 59 | 165 | 3.0 | 12.0 | 0.00 | 0.00 | 0.00 | 38 | 1013.9 |
| 20260505181028 | 59 | 69 | 6.0 | 12.0 | 0.00 | 0.00 | 0.00 | 38 | 1014.1 |
| 20260505180524 | 59 | 62 | 5.0 | 12.0 | 0.00 | 0.00 | 0.00 | 38 | 1014.1 |
| 20260505180037 | 57 | 65 | 3.0 | 12.0 | 0.00 | 0.00 | 0.00 | 38 | 1014.2 |
| 20260505175524 | 56 | 90 | 3.0 | 12.0 | 0.00 | 0.00 | 0.00 | 39 | 1014.3 |
| 20260505175024 | 56 | 173 | 3.0 | 9.0 | 0.00 | 0.00 | 0.00 | 40 | 1014.3 |
| 20260505174538 | 56 | 146 | 4.0 | 8.0 | 0.00 | 0.00 | 0.00 | 39 | 1014.6 |
| 20260505174024 | 57 | 0 | 3.0 | 8.0 | 0.00 | 0.00 | 0.00 | 38 | 1014.7 |
| 20260505173523 | 57 | 78 | 1.0 | 8.0 | 0.00 | 0.00 | 0.00 | 39 | 1014.6 |
| 20260505173036 | 57 | 50 | 2.0 | 9.0 | 0.00 | 0.00 | 0.00 | 39 | 1014.6 |
| 20260505172524 | 57 | 66 | 2.0 | 9.0 | 0.00 | 0.00 | 0.00 | 39 | 1014.6 |
| 20260505172025 | 58 | 108 | 4.0 | 9.0 | 0.00 | 0.00 | 0.00 | 38 | 1014.5 |
| 20260505171542 | 57 | 88 | 1.0 | 9.0 | 0.00 | 0.00 | 0.00 | 39 | 1014.6 |